Valparaiso, IN

2:56 AM CDT on July 23, 2017 (GMT -0500)
Porter County Municipal

Weather History for KVPZ - February, 2014

Change the Weather History Date:

Sunday, February 2, 2014

  Actual Average Record
Temperature  
Mean Temperature 16 °F 24 °F  
Max Temperature 26 °F 32 °F 54 °F (2016)
Min Temperature 5 °F 17 °F 0 °F (2001)
Degree Days  
Heating Degree Days 49 41  
Month to date heating degree days 86 82  
Since 1 July heating degree days 4158 3767  
Cooling Degree Days 0 0  
Month to date cooling degree days 0 0  
Year to date cooling degree days 0 0  
Moisture  
Dew Point 13 °F    
Average Humidity 81    
Maximum Humidity 95    
Minimum Humidity 71    
Precipitation  
Precipitation T in 0.04 in 0.69 in (2016)
Month to date precipitation 0.36 0.08  
Year to date precipitation 1.31 1.83  
Sea Level Pressure  
Sea Level Pressure 30.22 in    
Wind  
Wind Speed 8 mph (NNW)    
Max Wind Speed 14 mph    
Max Gust Speed 20 mph    
Visibility 10 miles    
Events      
T = Trace of Precipitation, MM = Missing Value Source: NWS Daily Summary

Daily Weather History Graph

Daily Weather History Graph

Search for Another Location

Airport or City:

Trip Planner

Search our weather history database for the weather conditions in past years. The results will help you decide how hot, cold, wet, or windy it might be!

Date:

Astronomy

Feb. 02, 2014 Rise Set
Actual Time 6:58 AM CST 5:05 PM CST
Civil Twilight 6:29 AM CST 5:34 PM CST
Nautical Twilight 5:56 AM CST 6:07 PM CST
Astronomical Twilight 5:23 AM CST 6:40 PM CST
Moon 8:22 AM CST (2/2) 8:52 PM CST (2/2)
Length of Visible Light 11h 05m
Length of Day
10h 06m
Waxing Crescent, 11% of the Moon is Illuminated
Feb 2
Waxing Crescent
Feb 6
First Quarter
Feb 14
Full
Feb 22
Last Quarter
Mar 1
New

Hourly Weather History & Observations

Time (CST) Temp. Windchill Dew Point Humidity Pressure Visibility Wind Dir Wind Speed Gust Speed Precip Events Conditions
12:42 AM 26.1 °F 17.6 °F 23.0 °F 88% 30.07 in 10.0 mi NW 8.1 mph - N/A   Overcast
12:53 AM 26.1 °F 15.0 °F 21.9 °F 84% 30.10 in 10.0 mi NNW 12.7 mph - N/A   Overcast
1:51 AM 24.8 °F 17.9 °F 21.2 °F 86% 30.09 in 8.0 mi NNW 5.8 mph - N/A   Overcast
1:53 AM 25.0 °F 16.3 °F 21.9 °F 88% 30.12 in 8.0 mi NW 8.1 mph - N/A   Overcast
2:33 AM 24.1 °F 14.4 °F 21.0 °F 88% 30.08 in 10.0 mi NNW 9.2 mph - N/A   Overcast
2:39 AM 24.1 °F 13.7 °F 21.0 °F 88% 30.09 in 10.0 mi NNW 10.4 mph - N/A   Mostly Cloudy
2:53 AM 24.1 °F 15.2 °F 19.9 °F 84% 30.12 in 10.0 mi NNW 8.1 mph - N/A   Mostly Cloudy
3:53 AM 23.0 °F 13.1 °F 19.0 °F 85% 30.12 in 10.0 mi NW 9.2 mph - N/A   Overcast
4:53 AM 21.9 °F 11.7 °F 19.0 °F 89% 30.14 in 10.0 mi NNW 9.2 mph - N/A   Partly Cloudy
5:53 AM 21.0 °F 12.4 °F 18.0 °F 88% 30.16 in 10.0 mi NNW 6.9 mph - N/A   Scattered Clouds
6:01 AM 21.0 °F 12.4 °F 18.0 °F 88% 30.13 in 10.0 mi NNW 6.9 mph - N/A   Mostly Cloudy
6:53 AM 19.0 °F 8.2 °F 15.1 °F 85% 30.18 in 10.0 mi NNW 9.2 mph - N/A   Mostly Cloudy
7:03 AM 19.0 °F 8.2 °F 14.0 °F 81% 30.15 in 9.0 mi NW 9.2 mph - N/A   Mostly Cloudy
7:53 AM 18.0 °F 8.7 °F 12.9 °F 81% 30.21 in 10.0 mi NW 6.9 mph - N/A   Overcast
8:53 AM 19.0 °F 8.2 °F 12.9 °F 77% 30.24 in 10.0 mi NW 9.2 mph - N/A   Scattered Clouds
9:13 AM 19.0 °F 8.2 °F 12.9 °F 77% 30.21 in 10.0 mi NW 9.2 mph 19.6 mph N/A   Mostly Cloudy
9:53 AM 19.0 °F 5.6 °F 12.9 °F 77% 30.27 in 10.0 mi NNW 13.8 mph - N/A   Mostly Cloudy
10:53 AM 19.9 °F 9.3 °F 12.0 °F 71% 30.29 in 10.0 mi NNW 9.2 mph - 0.00 in   Mostly Cloudy
11:06 AM 19.9 °F 9.3 °F 12.0 °F 71% 30.25 in 10.0 mi NNW 9.2 mph - 0.00 in   Scattered Clouds
11:53 AM 19.9 °F 7.9 °F 12.0 °F 71% 30.25 in 10.0 mi NNW 11.5 mph - 0.00 in   Partly Cloudy
12:15 PM 19.0 °F 7.5 °F 12.0 °F 74% 30.22 in 10.0 mi NNW 10.4 mph - N/A   Mostly Cloudy
12:33 PM 19.0 °F 7.5 °F 12.0 °F 74% 30.22 in 10.0 mi NW 10.4 mph - N/A   Scattered Clouds
12:53 PM 19.0 °F 6.8 °F 12.0 °F 74% 30.24 in 10.0 mi NNW 11.5 mph 17.3 mph N/A   Scattered Clouds
1:53 PM 18.0 °F 7.7 °F 10.9 °F 74% 30.27 in 10.0 mi NW 8.1 mph - N/A   Partly Cloudy
2:53 PM 18.0 °F 6.9 °F 10.0 °F 71% 30.27 in 10.0 mi NNW 9.2 mph - N/A   Clear
3:53 PM 17.1 °F 6.6 °F 10.0 °F 74% 30.30 in 10.0 mi North 8.1 mph - N/A   Clear
4:53 PM 17.1 °F 10.0 °F 10.0 °F 74% 30.31 in 10.0 mi North 4.6 mph - N/A   Clear
5:53 PM 16.0 °F 10.4 °F 10.0 °F 77% 30.32 in 10.0 mi North 3.5 mph - N/A   Clear
6:20 PM 16.0 °F 10.4 °F 10.0 °F 77% 30.28 in 10.0 mi NW 3.5 mph - N/A   Mostly Cloudy
6:53 PM 15.1 °F 7.7 °F 10.0 °F 80% 30.32 in 10.0 mi WNW 4.6 mph - N/A   Mostly Cloudy
7:05 PM 14.0 °F 6.5 °F 10.0 °F 84% 30.28 in 10.0 mi WNW 4.6 mph - N/A   Scattered Clouds
7:16 PM 15.1 °F 9.4 °F 10.0 °F 80% 30.27 in 10.0 mi WNW 3.5 mph - N/A   Mostly Cloudy
7:49 PM 15.8 °F 8.6 °F 10.4 °F 79% 30.26 in 10.0 mi NW 4.6 mph - N/A   Scattered Clouds
7:53 PM 15.1 °F 7.7 °F 10.0 °F 80% 30.30 in 10.0 mi NNW 4.6 mph - N/A   Partly Cloudy
8:13 PM 15.1 °F 7.7 °F 10.0 °F 80% 30.25 in 10.0 mi NNW 4.6 mph - N/A   Mostly Cloudy
8:25 PM 15.1 °F 9.4 °F 10.0 °F 80% 30.25 in 10.0 mi NNW 3.5 mph - N/A   Scattered Clouds
8:53 PM 12.9 °F - 9.0 °F 84% 30.32 in 10.0 mi Calm Calm - N/A   Mostly Cloudy
9:29 PM 12.9 °F 5.2 °F 9.0 °F 84% 30.26 in 10.0 mi NNW 4.6 mph - N/A   Partly Cloudy
9:53 PM 14.0 °F 8.2 °F 9.0 °F 80% 30.31 in 10.0 mi North 3.5 mph - N/A   Clear
10:53 PM 10.9 °F 1.4 °F 9.0 °F 92% 30.32 in 9.0 mi WNW 5.8 mph - N/A   Clear
11:53 PM 8.1 °F 1.4 °F 7.0 °F 95% 30.31 in 7.0 mi NW 3.5 mph - N/A   Clear